星链-30949 (STARLINK-30949 )

导读

STARLINK-30949是美国太空探索技术公司(SpaceX)发射的星链卫星,于2023年11月22日发射升空,隶属于星链互联网星座项目。星链计划旨在构建全球卫星互联网,该卫星承担着为全球尤其是偏远地区提供高速网络接入服务的任务,是马斯克星链星座组网进程中的一颗组网卫星。

基本信息
目录编号:
58415
目录名称:
STARLINK-30949
国际标识:
2023-180P
轨道中心:
EARTH
卫星名称:
星链-30949
卫星全名:
星链-30949 (STARLINK-30949 )
卫星状态:
在轨 (已飞行1017 天)
发射日期:
2023-11-22 UTC
国别 :
美国 (US)
星等 :
--
轨道信息
数据来源 国际轨道数据
星历时间: 2026-09-04T09:16:12+0800
13小时前
查看轨道信息
半长轴: 6861.219km
偏心率: 0.0001695
轨道倾角: 43.004°
近地点辐角 289.325°
升交点赤经 125.284°
平近点角 70.742°
近地点: 481.919km
远地点: 484.245km
周期: 94.267分钟
每日圈数: 15.275691
详细信息
固有亮度:
5
最大亮度:
0.3
卫星平台:
Starlink v2.0 mini
覆盖范围:
全球
运营商:
太空探索技术公司
运营商所在国:
美国
制造商(研发单位):
太空探索技术公司
制造商所在国:
美国
使用方式:
暂无
卫星简介
星链(Starlink)计划是由太空探索技术公司(SpaceX)提出的一个巨型低轨卫星互联网星座项目,计划在2019年至2024年间在太空搭建由约1.2万颗卫星组成的“星链”网络,其中1584颗将部署在地球上空550千米处的近地轨道,并从2020年开始工作。该卫星仍在工作。
2D轨道图
3D轨道图
轨道高度分析图
轨道倾角分析图
轨道综合分析图
查看轨道综合分析图
交会数据列表
事件ID 空间交会对象 最接近时刻(TCA) 交会距离 交会风险概率(CRP) 交会风险指数(CRI) 操作
CDM_260828-170805-841506-204322
2026-08-28T
17:08:28+0000
0.211 km
中距离
6.656483E-4 高风险 0.91
CDM_260903-193605-841506-308321
2026-09-03T
19:36:09+0000
0.920 km
远距离
3.110581E-5 中风险 0.65
CDM_260906-112605-841506-356721
2026-09-06T
11:26:34+0000
1.035 km
极远距离
1.804492E-5 中风险 0.6
CDM_260828-153405-841506-204321
2026-08-28T
15:34:19+0000
2.174 km
极远距离
1.839174E-6 低风险 0.4
CDM_260903-032405-841506-049822
2026-09-03T
03:24:37+0000
2.579 km
极远距离
1.625617E-6 低风险 0.39
CDM_260906-095205-841506-356721
2026-09-06T
09:52:25+0000
2.452 km
极远距离
1.427956E-6 低风险 0.38
CDM_260906-130005-841506-356721
2026-09-06T
13:00:43+0000
2.846 km
极远距离
1.133613E-6 低风险 0.36